KINEIS-2E

Last updated on Mon Sep 21 2026 00:02:54 GMT+0000 (Coordinated Universal Time)

1 62931U 25028D 26263.39992904 .00000705 00000+0 10667-3 0 9996 2 62931 97.8863 312.9740 0001193 117.6640 242.4692 14.77218776 86833
UTC large
Height (km)
Speed (km/s)
/
Latitude / Longitude
Inclination (degrees)
Orbital Period (minutes)
Azimuth
Elevation
Range (km)
Doppler Factor

Next 0 passes for location: London (51.5072 / 0.1276)

No passes found over London.
KINEIS-2E